Location: McFarlands Corners
(41.4117°N, 81.3382°W)
Time: 02:53:36
(UTC+00:00)

Tiros 1 - Pass Details

Date: 19 February 2026
Orbit: 618 x 649 km, 48.4° (Epoch: 13 March)

Event Time Altitude Azimuth Distance (km) Brightness Sun altitude
Rises 18:38:29 0° 298° (WNW) 2,894 10.4 35.8°
Reaches altitude 10° 18:40:48 10° 299° (WNW) 1,984 9.7 35.6°
Maximum altitude 18:45:22 84° 28° (NNE) 625 7.6 35.3°
Drops below altitude 10° 18:49:54 10° 117° (ESE) 1,974 9.8 35.0°
Sets 18:52:13 0° 118° (ESE) 2,878 10.6 34.9°
